Location: Unnamed
(50.8592°N, 5.7868°E)
Time: 00:01:13
(UTC+01:00)

ISS - Visible Passes

Search period start: 25 September 2022 00:00
Search period end: 05 October 2022 00:00
Orbit: 414 x 417 km, 51.6° (Epoch: 24 September)

Date Brightness Start Highest point End Pass type
(mag) Time Alt. Az. Time Alt. Az. Time Alt. Az.
25 Sep -3.7 19:32:40 10° W 19:36:02 75° N 19:38:21 19° E visible
25 Sep -1.8 21:09:27 10° WNW 21:11:13 28° W 21:11:13 28° W visible
26 Sep -3.9 20:20:47 10° WNW 20:24:10 80° SSW 20:24:23 73° SE visible
27 Sep -3.8 19:32:07 10° W 19:35:30 86° N 19:37:32 22° E visible
27 Sep -1.4 21:08:57 10° W 21:10:25 21° W 21:10:25 21° W visible
28 Sep -3.3 20:20:12 10° W 20:23:28 48° SSW 20:23:36 48° SSW visible
29 Sep -3.6 19:31:28 10° WNW 19:34:49 65° SSW 19:36:47 22° ESE visible
29 Sep -0.9 21:08:45 10° W 21:09:40 14° WSW 21:09:40 14° WSW visible
30 Sep -2.2 20:19:43 10° W 20:22:34 26° SW 20:22:54 25° SSW visible
01 Oct -2.6 19:30:50 10° W 19:33:58 36° SSW 19:36:11 16° SSE visible
02 Oct -3.1 18:42:02 10° W 18:45:18 51° SSW 18:48:34 10° SE visible
02 Oct -1.1 20:19:50 10° WSW 20:21:27 13° SW 20:22:26 12° SSW visible
03 Oct -1.4 19:30:25 10° W 19:32:54 19° SW 19:35:21 10° S visible
04 Oct -1.9 18:41:22 10° W 18:44:17 27° SSW 18:47:11 10° SSE visible
